This demonstration page uses our WeatherBlox Daily Observations layout. Learn more.

Left ArrowRight Arrow

44.31136, -96.79839

Hourly Observations for November 28, 2022

Temp ( °F °C ) Dew Point ( °F °C ) Humidity (%) Winds ( mph kmh ) Pressure ( in mb ) Visibility ( mi km ) Precip ( " mm )
12:56 am 00:56 Clear 26 -3.3 19 -7.2 74 74 SSE 13 20 29.77 1008 10 16 0.00 0.00
1:56 am 01:56 Partly Cloudy 26 -3.3 19 -7.2 74 74 SSE 16 26 29.73 1007 10 16 0.00 0.00
2:56 am 02:56 Clear 26 -3.3 20 -6.7 77 77 SSE 16 26 29.69 1006 10 16 0.00 0.00
3:56 am 03:56 Clear 27 -2.8 20 -6.7 74 74 SSE 16 26 29.67 1005 10 16 0.00 0.00
4:56 am 04:56 Clear 27 -2.8 20 -6.7 74 74 SSE 16 26 29.65 1004 10 16 0.00 0.00
5:56 am 05:56 Clear 28 -2.2 20 -6.7 71 71 SSE 16 26 29.63 1003 10 16 0.00 0.00
6:56 am 06:56 Clear 27 -2.8 21 -6.1 78 78 SSE 9 15 29.64 1004 10 16 0.00 0.00
7:56 am 07:56 Sunny 28 -2.2 22 -5.6 77 77 S 10 17 29.64 1004 10 16 0.00 0.00
8:56 am 08:56 Sunny 29 -1.7 22 -5.6 75 75 S 10 17 29.64 1004 10 16 0.00 0.00
9:56 am 09:56 Sunny 32 0 24 -4.4 72 72 SSW 13 20 29.64 1004 10 16 0.00 0.00
10:56 am 10:56 Sunny 36 2.2 24 -4.4 62 62 SW 10 17 29.64 1004 10 16 0.00 0.00
11:56 am 11:56 Sunny 38 3.3 24 -4.4 57 57 W 12 19 29.64 1004 10 16 0.00 0.00
12:56 pm 12:56 Sunny 41 5 23 -5 48 48 WNW 10 17 29.63 1004 10 16 0.00 0.00
1:56 pm 13:56 Sunny 42 5.6 25 -3.9 50 50 NW 16 26 29.65 1004 10 16 0.00 0.00
2:56 pm 14:56 Sunny 39 3.9 26 -3.3 59 59 NW 16 26 29.68 1005 10 16 0.00 0.00
3:56 pm 15:56 Sunny 38 3.3 26 -3.3 62 62 NW 12 19 29.71 1006 10 16 0.00 0.00
4:56 pm 16:56 Clear 34 1.1 25 -3.9 69 69 NNW 7 11 29.74 1007 10 16 0.00 0.00
5:56 pm 17:56 Clear 32 0 25 -3.9 75 75 WNW 7 11 29.77 1008 10 16 0.00 0.00
6:56 pm 18:56 Mostly Cloudy 31 -0.6 25 -3.9 78 78 WNW 7 11 29.80 1009 10 16 0.00 0.00
7:56 pm 19:56 Cloudy 30 -1.1 24 -4.4 78 78 NW 5 7 29.83 1010 10 16 0.00 0.00
8:56 pm 20:56 Cloudy 30 -1.1 25 -3.9 81 81 W 6 9 29.86 1011 10 16 0.00 0.00
9:56 pm 21:56 Cloudy 30 -1.1 25 -3.9 81 81 NW 6 9 29.87 1012 10 16 0.00 0.00
10:56 pm 22:56 Cloudy 30 -1.1 24 -4.4 78 78 NNW 7 11 29.85 1011 10 16 0.00 0.00
11:56 pm 23:56 Cloudy 31 -0.6 22 -5.6 69 69 NNW 10 17 29.83 1010 10 16 0.00 0.00

Powered by AerisWeather